timestamp,wind_dir_avg,wind_spd_avg,wind_spd_max_dir,wind_spd_gust,battery_voltage,lat,long
2022-11-04 00:04:00+00:00,281.0,7.18,289.0,8.52,12.41,47.59359,-54.27349
2022-11-04 00:14:00+00:00,289.0,6.83,297.0,8.01,12.41,47.59359,-54.27349
2022-11-04 00:24:00+00:00,280.0,7.06,271.0,7.88,12.41,47.59359,-54.27349
2022-11-04 00:34:00+00:00,277.0,6.81,278.0,7.84,12.41,47.59359,-54.27349
2022-11-04 00:44:00+00:00,280.0,6.86,277.0,8.58,12.41,47.59359,-54.27349
2022-11-04 00:54:00+00:00,269.0,6.47,263.0,7.82,12.41,47.59359,-54.27349
2022-11-04 01:04:00+00:00,285.0,7.05,282.0,8.62,12.41,47.59359,-54.27349
2022-11-04 01:14:01+00:00,285.0,7.3,290.0,8.89,12.41,47.59359,-54.27349
2022-11-04 01:24:01+00:00,287.0,7.28,297.0,8.53,12.41,47.59359,-54.27349
2022-11-04 01:34:01+00:00,276.0,7.51,278.0,8.63,12.41,47.59359,-54.27349
2022-11-04 01:44:01+00:00,281.0,7.1,279.0,8.6,12.41,47.59359,-54.27349
2022-11-04 01:54:01+00:00,280.0,5.87,285.0,7.22,12.41,47.59359,-54.27349
2022-11-04 02:04:01+00:00,289.0,7.6,288.0,8.6,12.41,47.59359,-54.27349
2022-11-04 02:14:00+00:00,281.0,7.56,278.0,9.09,12.41,47.59359,-54.27349
2022-11-04 02:24:00+00:00,284.0,8.9,274.0,13.89,12.41,47.59359,-54.27349
2022-11-04 02:34:00+00:00,279.0,8.95,282.0,13.7,12.41,47.59359,-54.27349
2022-11-04 02:44:00+00:00,277.0,7.47,279.0,8.46,12.41,47.59359,-54.27349
2022-11-04 02:54:00+00:00,279.0,8.11,271.0,8.81,12.41,47.59359,-54.27349
2022-11-04 03:04:00+00:00,276.0,7.69,276.0,8.36,12.41,47.59359,-54.27349
2022-11-04 03:14:00+00:00,277.0,8.46,276.0,13.93,12.41,47.59359,-54.27349
2022-11-04 03:24:00+00:00,268.0,8.53,272.0,14.1,12.41,47.59359,-54.27349
2022-11-04 03:34:00+00:00,273.0,9.1,279.0,13.75,12.41,47.59359,-54.27349
2022-11-04 03:44:00+00:00,274.0,10.46,271.0,14.4,12.41,47.59359,-54.27349
2022-11-04 03:54:00+00:00,271.0,8.57,275.0,14.04,12.41,47.59359,-54.27349
2022-11-04 04:04:00+00:00,269.0,7.79,272.0,9.58,12.41,47.59359,-54.27349
2022-11-04 04:14:00+00:00,270.0,8.31,273.0,12.88,12.33,47.59359,-54.27349
2022-11-04 04:24:00+00:00,277.0,8.87,275.0,12.8,12.33,47.59359,-54.27349
2022-11-04 04:34:00+00:00,276.0,8.63,275.0,12.66,12.33,47.59359,-54.27349
2022-11-04 04:44:00+00:00,279.0,10.48,276.0,14.58,12.33,47.59359,-54.27349
2022-11-04 04:54:00+00:00,273.0,6.81,272.0,8.22,12.33,47.59359,-54.27349
2022-11-04 05:04:00+00:00,278.0,7.59,281.0,8.52,12.33,47.59359,-54.27349
2022-11-04 05:14:01+00:00,264.0,8.2,264.0,11.16,12.33,47.59359,-54.27349
2022-11-04 05:24:01+00:00,270.0,7.46,276.0,14.26,12.33,47.59359,-54.27349
2022-11-04 05:34:01+00:00,268.0,8.73,270.0,12.62,12.33,47.59359,-54.27349
2022-11-04 05:44:01+00:00,280.0,7.41,282.0,8.65,12.33,47.59359,-54.27349
2022-11-04 05:54:01+00:00,261.0,8.92,264.0,13.75,12.33,47.59359,-54.27349
2022-11-04 06:04:01+00:00,273.0,8.34,272.0,12.53,12.33,47.59359,-54.27349
2022-11-04 06:14:00+00:00,277.0,11.38,274.0,18.1,12.33,47.59359,-54.27349
2022-11-04 06:24:00+00:00,280.0,8.5,274.0,13.46,12.33,47.59359,-54.27349
2022-11-04 06:34:00+00:00,284.0,8.13,280.0,10.91,12.33,47.59359,-54.27349
2022-11-04 06:44:00+00:00,280.0,7.68,265.0,10.69,12.33,47.59359,-54.27349
2022-11-04 06:54:00+00:00,278.0,7.05,277.0,7.82,12.33,47.59359,-54.27349
2022-11-04 07:04:00+00:00,273.0,7.16,275.0,8.22,12.33,47.59359,-54.27349
2022-11-04 07:14:00+00:00,268.0,5.76,271.0,7.12,12.33,47.59359,-54.27349
2022-11-04 07:24:00+00:00,288.0,5.29,288.0,6.28,12.33,47.59359,-54.27349
2022-11-04 07:34:00+00:00,262.0,6.03,272.0,7.83,12.33,47.59359,-54.27349
2022-11-04 07:44:00+00:00,272.0,4.99,263.0,5.62,12.33,47.59359,-54.27349
2022-11-04 07:54:00+00:00,247.0,3.93,236.0,4.59,12.33,47.59359,-54.27349
2022-11-04 08:04:00+00:00,244.0,4.28,231.0,5.52,12.33,47.59359,-54.27349
2022-11-04 08:14:00+00:00,234.0,5.09,232.0,5.58,12.33,47.59359,-54.27349
2022-11-04 08:24:00+00:00,224.0,5.31,224.0,6.26,12.33,47.59359,-54.27349
2022-11-04 08:34:00+00:00,231.0,4.77,239.0,5.77,12.33,47.59359,-54.27349
2022-11-04 08:44:00+00:00,237.0,5.09,231.0,5.75,12.33,47.59359,-54.27349
2022-11-04 08:54:00+00:00,238.0,5.41,232.0,6.25,12.33,47.59359,-54.27349
2022-11-04 09:04:00+00:00,229.0,5.31,222.0,5.84,12.33,47.59359,-54.27349
2022-11-04 09:14:01+00:00,231.0,5.15,227.0,5.68,12.33,47.59359,-54.27349
2022-11-04 09:24:01+00:00,231.0,5.53,230.0,6.23,12.33,47.59359,-54.27349
2022-11-04 09:34:01+00:00,225.0,5.67,221.0,6.56,12.33,47.59359,-54.27349
2022-11-04 09:44:01+00:00,236.0,5.73,233.0,6.34,12.33,47.59359,-54.27349
2022-11-04 09:54:01+00:00,242.0,6.18,234.0,7.63,12.33,47.59359,-54.27349
2022-11-04 10:04:01+00:00,244.0,7.56,246.0,9.09,12.33,47.59359,-54.27349
2022-11-04 10:14:00+00:00,238.0,6.38,239.0,7.21,12.25,47.59359,-54.27349
2022-11-04 10:24:00+00:00,237.0,6.51,242.0,7.26,12.25,47.59359,-54.27349
2022-11-04 10:34:00+00:00,242.0,7.35,245.0,8.41,12.25,47.59359,-54.27349
2022-11-04 10:44:00+00:00,241.0,6.56,234.0,7.57,12.25,47.59359,-54.27349
2022-11-04 10:54:00+00:00,235.0,6.07,240.0,7.12,12.25,47.59359,-54.27349
2022-11-04 11:04:00+00:00,234.0,6.75,234.0,8.3,12.25,47.59359,-54.27349
2022-11-04 11:14:00+00:00,233.0,5.93,238.0,7.93,13.05,47.59359,-54.27349
2022-11-04 11:24:00+00:00,233.0,6.65,235.0,7.37,13.05,47.59359,-54.27349
2022-11-04 11:34:00+00:00,240.0,6.11,241.0,6.9,13.05,47.59359,-54.27349
2022-11-04 11:44:00+00:00,251.0,6.18,255.0,7.44,13.05,47.59359,-54.27349
2022-11-04 11:54:00+00:00,246.0,6.11,244.0,7.69,13.05,47.59359,-54.27349
2022-11-04 12:04:00+00:00,252.0,6.69,258.0,7.75,13.05,47.59359,-54.27349
2022-11-04 12:14:00+00:00,243.0,7.39,243.0,7.96,13.29,47.59359,-54.27349
2022-11-04 12:24:00+00:00,242.0,7.68,241.0,9.2,13.29,47.59359,-54.27349
2022-11-04 12:34:00+00:00,245.0,6.63,250.0,7.84,13.29,47.59359,-54.27349
2022-11-04 12:44:00+00:00,243.0,6.44,246.0,7.23,13.29,47.59359,-54.27349
2022-11-04 12:54:00+00:00,261.0,5.5,266.0,6.48,13.29,47.59359,-54.27349
2022-11-04 13:04:00+00:00,267.0,4.84,267.0,5.22,13.29,47.59359,-54.27349
2022-11-04 13:14:00+00:00,265.0,4.79,267.0,5.24,14.16,47.59359,-54.27349
2022-11-04 13:24:00+00:00,248.0,5.05,252.0,5.53,14.16,47.59359,-54.27349
2022-11-04 13:34:00+00:00,262.0,4.97,264.0,5.52,14.16,47.59359,-54.27349
2022-11-04 13:44:00+00:00,260.0,5.22,255.0,6.07,14.16,47.59359,-54.27349
2022-11-04 13:54:00+00:00,270.0,4.61,280.0,5.35,14.16,47.59359,-54.27349
2022-11-04 14:04:00+00:00,271.0,4.49,281.0,5.15,14.16,47.59359,-54.27349
2022-11-04 14:14:00+00:00,268.0,3.87,263.0,4.22,13.68,47.59359,-54.27349
2022-11-04 14:24:00+00:00,281.0,5.53,284.0,7.06,13.68,47.59359,-54.27349
2022-11-04 14:34:00+00:00,289.0,5.16,294.0,5.72,13.68,47.59359,-54.27349
2022-11-04 14:44:00+00:00,286.0,6.2,286.0,7.42,13.68,47.59359,-54.27349
2022-11-04 14:54:00+00:00,282.0,6.76,278.0,7.35,13.68,47.59359,-54.27349
2022-11-04 15:04:00+00:00,287.0,5.88,287.0,6.62,13.68,47.59359,-54.27349
2022-11-04 15:14:00+00:00,302.0,4.01,301.0,4.39,13.76,47.59359,-54.27349
2022-11-04 15:24:00+00:00,280.0,4.42,281.0,5.34,13.76,47.59359,-54.27349
2022-11-04 15:34:00+00:00,316.0,4.67,318.0,5.19,13.76,47.59359,-54.27349
2022-11-04 15:44:00+00:00,300.0,4.61,302.0,5.08,13.76,47.59359,-54.27349
2022-11-04 15:54:00+00:00,284.0,4.08,288.0,4.64,13.76,47.59359,-54.27349
2022-11-04 16:04:00+00:00,288.0,5.13,286.0,5.53,13.76,47.59359,-54.27349
2022-11-04 16:14:01+00:00,274.0,3.7,272.0,4.03,14.0,47.59359,-54.27349
2022-11-04 16:24:01+00:00,287.0,4.05,293.0,5.08,14.0,47.59359,-54.27349
2022-11-04 16:34:01+00:00,271.0,3.71,272.0,3.96,14.0,47.59359,-54.27349
2022-11-04 16:44:01+00:00,267.0,3.6,267.0,3.91,14.0,47.59359,-54.27349
2022-11-04 16:54:01+00:00,245.0,3.82,246.0,4.26,14.0,47.59359,-54.27349
2022-11-04 17:04:01+00:00,266.0,4.17,269.0,4.7,14.0,47.59359,-54.27349
2022-11-04 17:14:00+00:00,269.0,4.71,279.0,5.45,14.32,47.59359,-54.27349
2022-11-04 17:24:00+00:00,268.0,4.04,268.0,4.44,14.32,47.59359,-54.27349
2022-11-04 17:34:00+00:00,265.0,3.11,266.0,3.47,14.32,47.59359,-54.27349
2022-11-04 17:44:00+00:00,283.0,2.49,282.0,2.74,14.32,47.59359,-54.27349
2022-11-04 17:54:00+00:00,280.0,3.29,281.0,3.65,14.32,47.59359,-54.27349
2022-11-04 18:04:00+00:00,273.0,3.96,276.0,4.35,14.32,47.59359,-54.27349
2022-11-04 18:14:01+00:00,277.0,5.8,269.0,6.42,14.24,47.59359,-54.27349
2022-11-04 18:24:01+00:00,293.0,4.45,299.0,4.96,14.24,47.59359,-54.27349
2022-11-04 18:34:01+00:00,296.0,3.57,292.0,3.91,14.24,47.59359,-54.27349
2022-11-04 18:44:01+00:00,283.0,2.88,281.0,3.26,14.24,47.59359,-54.27349
2022-11-04 18:54:01+00:00,279.0,3.17,284.0,3.41,14.24,47.59359,-54.27349
2022-11-04 19:04:01+00:00,288.0,3.49,291.0,4.1,14.24,47.59359,-54.27349
2022-11-04 19:14:00+00:00,300.0,4.17,300.0,4.38,13.84,47.59359,-54.27349
2022-11-04 19:24:00+00:00,296.0,4.19,301.0,4.77,13.84,47.59359,-54.27349
2022-11-04 19:34:00+00:00,292.0,3.51,290.0,3.73,13.84,47.59359,-54.27349
2022-11-04 19:44:00+00:00,284.0,4.08,284.0,4.51,13.84,47.59359,-54.27349
2022-11-04 19:54:00+00:00,292.0,3.77,293.0,4.08,13.84,47.59359,-54.27349
2022-11-04 20:04:00+00:00,276.0,3.91,278.0,4.21,13.84,47.59359,-54.27349
2022-11-04 20:14:00+00:00,277.0,4.93,280.0,5.29,13.21,47.59359,-54.27349
2022-11-04 20:24:00+00:00,278.0,3.41,277.0,3.66,13.21,47.59359,-54.27349
2022-11-04 20:34:00+00:00,265.0,3.14,265.0,3.44,13.21,47.59359,-54.27349
2022-11-04 20:44:00+00:00,280.0,4.19,282.0,4.65,13.21,47.59359,-54.27349
2022-11-04 20:54:00+00:00,280.0,3.74,283.0,4.09,13.21,47.59359,-54.27349
2022-11-04 21:04:00+00:00,266.0,2.87,262.0,3.23,13.21,47.59359,-54.27349
2022-11-04 21:14:00+00:00,276.0,3.02,280.0,3.54,12.57,47.59359,-54.27349
2022-11-04 21:24:00+00:00,290.0,3.58,287.0,4.39,12.57,47.59359,-54.27349
2022-11-04 21:34:00+00:00,288.0,3.7,290.0,4.07,12.57,47.59359,-54.27349
2022-11-04 21:44:00+00:00,289.0,4.1,286.0,5.15,12.57,47.59359,-54.27349
2022-11-04 21:54:00+00:00,291.0,3.61,294.0,3.88,12.57,47.59359,-54.27349
2022-11-04 22:04:00+00:00,277.0,3.03,274.0,3.31,12.57,47.59359,-54.27349
2022-11-04 22:14:00+00:00,273.0,2.29,274.0,2.56,12.41,47.59359,-54.27349
2022-11-04 22:24:00+00:00,269.0,1.08,266.0,1.38,12.41,47.59359,-54.27349
2022-11-04 22:34:00+00:00,219.0,1.96,220.0,2.16,12.41,47.59359,-54.27349
2022-11-04 22:44:00+00:00,235.0,2.18,232.0,2.56,12.41,47.59359,-54.27349
2022-11-04 22:54:00+00:00,242.0,1.9,244.0,2.18,12.41,47.59359,-54.27349
2022-11-04 23:04:00+00:00,241.0,4.23,239.0,4.45,12.41,47.59359,-54.27349
2022-11-04 23:14:00+00:00,232.0,4.91,239.0,5.44,12.41,47.59359,-54.27349
2022-11-04 23:24:00+00:00,234.0,7.36,239.0,8.89,12.41,47.59359,-54.27349
2022-11-04 23:34:00+00:00,240.0,7.04,242.0,8.4,12.41,47.59359,-54.27349
2022-11-04 23:44:00+00:00,229.0,5.55,225.0,6.2,12.41,47.59359,-54.27349
2022-11-04 23:54:00+00:00,237.0,6.02,241.0,7.18,12.41,47.59359,-54.27349
